St. Thomas, VI

6:18 PM AST on August 20, 2017 (GMT -0400)
King

Weather History for TIST - August, 2011

Change the Weather History Date:

Sunday, August 21, 2011

  Actual Average Record
Temperature  
Mean Temperature 81 °F 84 °F  
Max Temperature 85 °F 90 °F 98 °F (1992)
Min Temperature 77 °F 78 °F 74 °F (1989)
Degree Days  
Heating Degree Days 0 0  
Month to date heating degree days 0 0  
Since 1 June heating degree days 0 0  
Since 1 July heating degree days 0 0  
Cooling Degree Days 16 19  
Month to date cooling degree days 410 399  
Year to date cooling degree days 3552 3795  
Since 1 June cooling degree days 1530 1543  
Growing Degree Days 30 (Base 50)    
Moisture  
Dew Point 76 °F    
Average Humidity 85    
Maximum Humidity 91    
Minimum Humidity 79    
Precipitation  
Precipitation 2.87 in 0.13 in 2.87 in (2011)
Month to date precipitation 4.92 2.35  
Year to date precipitation 27.09 18.76  
Snow  
Snow 0.00 in 0.00 in - ()
Month to date snowfall 0.0 0.0  
Since 1 June snowfall 0.0 0.0  
Since 1 July snowfall 0.0 0.0  
Snow Depth 0.00 in    
Sea Level Pressure  
Sea Level Pressure 29.81 in    
Wind  
Wind Speed 21 mph (ENE)    
Max Wind Speed 46 mph    
Max Gust Speed 69 mph    
Visibility 7 miles    
Events Rain    
T = Trace of Precipitation, MM = Missing Value Source: NWS Daily Summary

Daily Weather History Graph

Daily Weather History Graph

Search for Another Location

Airport or City:

Trip Planner

Search our weather history database for the weather conditions in past years. The results will help you decide how hot, cold, wet, or windy it might be!

Date:

Astronomy

Aug. 21, 2011 Rise Set
Actual Time 6:03 AM AST 6:42 PM AST
Civil Twilight 5:40 AM AST 7:05 PM AST
Nautical Twilight 5:14 AM AST 7:31 PM AST
Astronomical Twilight 4:47 AM AST 7:58 PM AST
Moon 11:45 PM AST (8/21) 12:21 PM AST (8/21)
Length of Visible Light 13h 24m
Length of Day
12h 39m
Waning Gibbous, 52% of the Moon is Illuminated
Aug 21
Waning Gibbous
Aug 21
Last Quarter
Aug 28
New
Sep 4
First Quarter
Sep 12
Full

Hourly Weather History & Observations

Time (AST) Temp. Heat Index Dew Point Humidity Pressure Visibility Wind Dir Wind Speed Gust Speed Precip Events Conditions
12:53 AM 82.9 °F 90.8 °F 75.9 °F 79% 29.91 in 10.0 mi NE 15.0 mph 20.7 mph N/A   Overcast
1:51 AM 80.6 °F 85.4 °F 73.4 °F 79% 29.92 in 10.0 mi SE 23.0 mph 31.1 mph N/A   Overcast
1:53 AM 79.0 °F - 73.9 °F 84% 29.93 in 10.0 mi SE 18.4 mph 31.1 mph N/A   Overcast
2:00 AM 78.8 °F - 75.2 °F 89% 29.93 in 8.0 mi ESE 11.5 mph 31.1 mph 0.00 in Rain Rain
2:20 AM 78.8 °F - 75.2 °F 89% 29.89 in 9.0 mi North 4.6 mph - 0.14 in Rain Light Rain
2:27 AM 78.8 °F - 75.2 °F 89% 29.88 in 10.0 mi Calm Calm - 0.15 in Rain Light Rain
2:53 AM 81.0 °F 87.3 °F 75.9 °F 85% 29.86 in 10.0 mi ENE 6.9 mph - 0.15 in   Clear
3:53 AM 82.0 °F 89.4 °F 75.9 °F 82% 29.85 in 10.0 mi ENE 8.1 mph 23.0 mph 0.00 in   Clear
4:28 AM 82.4 °F 90.9 °F 77.0 °F 84% 29.86 in 10.0 mi NE 15.0 mph 25.3 mph N/A   Mostly Cloudy
4:49 AM 82.4 °F 89.5 °F 75.2 °F 79% 29.85 in 10.0 mi NE 13.8 mph 21.9 mph 0.00 in   Partly Cloudy
4:53 AM 81.0 °F 86.7 °F 75.0 °F 82% 29.86 in 10.0 mi NE 13.8 mph 23.0 mph 0.00 in   Partly Cloudy
5:53 AM 81.0 °F 86.7 °F 75.0 °F 82% 29.87 in 10.0 mi ENE 15.0 mph 24.2 mph N/A   Clear
6:53 AM 81.0 °F 87.3 °F 75.9 °F 85% 29.88 in 10.0 mi NE 16.1 mph 23.0 mph N/A   Clear
7:53 AM 82.9 °F 91.8 °F 77.0 °F 82% 29.89 in 10.0 mi NE 16.1 mph 24.2 mph N/A   Scattered Clouds
8:11 AM 82.4 °F 90.9 °F 77.0 °F 84% 29.90 in 5.0 mi East 19.6 mph 27.6 mph 0.02 in   Haze
8:14 AM 80.6 °F 86.2 °F 75.2 °F 84% 29.90 in 1.8 mi East 24.2 mph 31.1 mph 0.09 in Rain Heavy Rain
8:24 AM 78.8 °F - 75.2 °F 89% 29.90 in 3.0 mi ENE 15.0 mph - 0.13 in Rain Light Rain
8:53 AM 80.1 °F 85.8 °F 77.0 °F 90% 29.90 in 10.0 mi NE 12.7 mph 21.9 mph 0.13 in   Scattered Clouds
9:53 AM 82.9 °F 92.8 °F 78.1 °F 85% 29.89 in 10.0 mi NE 13.8 mph 23.0 mph N/A   Scattered Clouds
10:53 AM 82.9 °F 91.8 °F 77.0 °F 82% 29.89 in 10.0 mi ENE 12.7 mph 24.2 mph N/A   Mostly Cloudy
11:53 AM 82.9 °F 91.8 °F 77.0 °F 82% 29.86 in 4.0 mi NNE 15.0 mph 33.4 mph 0.01 in Rain Light Rain
12:00 PM 82.4 °F 92.4 °F 78.8 °F 89% 29.85 in 10.0 mi ENE 19.6 mph 33.4 mph 0.01 in   Overcast
12:09 PM 82.4 °F 92.4 °F 78.8 °F 89% 29.85 in 10.0 mi ENE 19.6 mph 34.5 mph 0.01 in   Mostly Cloudy
12:53 PM 81.0 °F 87.3 °F 75.9 °F 85% 29.84 in 7.0 mi ENE 24.2 mph 34.5 mph 0.01 in Rain Light Rain
1:09 PM 78.8 °F - 73.4 °F 83% 29.82 in 10.0 mi NE 20.7 mph 29.9 mph 0.00 in Rain Light Rain
1:53 PM 80.1 °F 85.8 °F 77.0 °F 90% 29.80 in 5.0 mi East 16.1 mph 31.1 mph 0.04 in Rain Rain
1:56 PM 80.6 °F 86.2 °F 75.2 °F 84% 29.79 in 2.0 mi ESE 13.8 mph 27.6 mph 0.07 in Rain Heavy Rain
2:10 PM 80.6 °F 86.2 °F 75.2 °F 84% 29.78 in 10.0 mi NE 26.5 mph 38.0 mph 0.08 in Rain Light Rain
2:21 PM 78.8 °F - 73.4 °F 83% 29.78 in 10.0 mi NE 27.6 mph 41.4 mph 0.08 in Rain Light Rain
2:53 PM 77.0 °F - 73.0 °F 88% 29.77 in 3.0 mi NE 28.8 mph 42.6 mph 0.16 in Rain Heavy Rain
3:23 PM 78.8 °F - 77.0 °F 94% 29.74 in 7.0 mi ENE 27.6 mph 44.9 mph 0.04 in Rain Light Rain
3:45 PM 80.6 °F 86.2 °F 75.2 °F 84% 29.73 in 7.0 mi ENE 31.1 mph 49.5 mph 0.06 in Rain Light Rain
3:53 PM 80.1 °F 85.4 °F 75.9 °F 87% 29.74 in 10.0 mi ENE 38.0 mph 49.5 mph 0.06 in Rain Light Rain
5:08 PM 78.8 °F - 75.2 °F 89% 29.71 in 1.8 mi NE 40.3 mph 56.4 mph 0.05 in Rain Heavy Rain
5:16 PM 78.8 °F - 75.2 °F 89% 29.70 in 1.0 mi NE 39.1 mph 67.9 mph 0.15 in Rain Heavy Rain
5:41 PM 80.6 °F 86.2 °F 75.2 °F 84% 29.67 in 2.0 mi NE 24.2 mph 62.1 mph 0.42 in Rain Heavy Rain
5:49 PM 80.6 °F 87.1 °F 77.0 °F 89% 29.68 in 1.8 mi ENE 23.0 mph 64.4 mph 0.50 in Rain Heavy Rain
5:53 PM 80.1 °F 85.8 °F 77.0 °F 90% 29.69 in 1.2 mi ENE 32.2 mph 64.4 mph 0.59 in Rain Heavy Rain
6:16 PM 80.6 °F - - N/A% 29.69 in 2.0 mi ENE 29.9 mph 66.7 mph 0.21 in Rain Heavy Rain
6:23 PM 80.6 °F - - N/A% 29.68 in 2.5 mi NE 36.8 mph 49.5 mph 0.24 in Rain Heavy Rain
6:41 PM 78.8 °F - - N/A% 29.69 in 1.5 mi NE 29.9 mph 38.0 mph 0.40 in Rain Heavy Rain
6:53 PM 80.1 °F - - N/A% 29.70 in 2.0 mi ENE 23.0 mph 34.5 mph 0.48 in Rain Heavy Rain
7:34 PM 78.8 °F - - N/A% 29.69 in 3.0 mi ENE 19.6 mph 41.4 mph 0.19 in Rain Heavy Rain
7:53 PM 79.0 °F - - N/A% 29.70 in 2.5 mi East 23.0 mph 39.1 mph 0.23 in Rain Rain
8:02 PM 78.8 °F - - N/A% 29.69 in 4.0 mi ENE 27.6 mph 35.7 mph 0.02 in Rain Rain
8:32 PM 78.8 °F - - N/A% 29.70 in 2.0 mi ESE 27.6 mph 46.0 mph 0.16 in Rain Heavy Rain
8:39 PM 78.8 °F - - N/A% 29.69 in 1.0 mi ESE 36.8 mph 48.3 mph 0.29 in Rain Heavy Rain
8:53 PM 79.0 °F - - N/A% 29.70 in 1.5 mi ESE 24.2 mph 42.6 mph 0.47 in Rain Heavy Rain
9:04 PM 78.8 °F - - N/A% 29.70 in 3.0 mi East 29.9 mph 46.0 mph 0.03 in Rain Heavy Rain
9:35 PM 78.8 °F - - N/A% 29.71 in 3.0 mi East 28.8 mph 44.9 mph 0.14 in Rain Heavy Rain
9:53 PM 80.1 °F - - N/A% 29.72 in 4.0 mi ESE 25.3 mph 36.8 mph 0.21 in Rain Heavy Rain
10:06 PM 80.6 °F - - N/A% 29.71 in 5.0 mi ESE 28.8 mph 44.9 mph 0.01 in Rain Rain
10:14 PM 80.6 °F - - N/A% 29.70 in 5.0 mi East 26.5 mph 38.0 mph 0.02 in Rain Light Rain
10:21 PM 78.8 °F - - N/A% 29.71 in 5.0 mi ESE 28.8 mph 40.3 mph 0.03 in Rain Rain
10:53 PM 79.0 °F - - N/A% 29.72 in 4.0 mi ESE 31.1 mph 47.2 mph 0.12 in Rain Rain
11:44 PM 80.6 °F - - N/A% 29.70 in 5.0 mi ESE 31.1 mph 50.6 mph 0.05 in Rain Rain
11:53 PM 81.0 °F - - N/A% 29.70 in 4.0 mi SE 33.4 mph 48.3 mph 0.07 in Rain Rain